Location: *
(57.8420°S, 159.8600°W)
Time: 03:37:38
(UTC+00:00)

Cosmos 1892 - Pass Details

Date: 18 May 2021
Orbit: 503 x 522 km, 82.5° (Epoch: 23 June)

Event Time Altitude Azimuth Distance (km) Brightness Sun altitude
Rises 04:29:33 0° 326° (NW) 2,660 7.0 -15.7°
Reaches altitude 10° 04:31:48 10° 317° (NW) 1,776 6.2 -16.0°
Maximum altitude 04:35:27 37° 248° (WSW) 835 4.2 -16.4°
Drops below altitude 10° 04:39:07 10° 179° (S) 1,786 5.3 -16.9°
Enters shadow 04:40:52 - 172° (S) 2,469 6.0 -17.1°
